Weather History for KBTL - December, 2012

Change the Weather History Date:

Tuesday, December 25, 2012

  Actual Average Record
Temperature  
Mean Temperature 24 °F 25 °F  
Max Temperature 32 °F 33 °F 41 °F (2011)
Min Temperature 15 °F 17 °F 1 °F (2004)
Degree Days  
Heating Degree Days 41 40  
Month to date heating degree days 709 919  
Since 1 July heating degree days 2119 2357  
Cooling Degree Days 0 0  
Month to date cooling degree days 0 0  
Year to date cooling degree days 1008 578  
Moisture  
Dew Point 17 °F    
Average Humidity 76    
Maximum Humidity 92    
Minimum Humidity 59    
Precipitation  
Precipitation 0.00 in 0.06 in 0.17 in (2005)
Month to date precipitation 1.63 1.62  
Year to date precipitation 24.28 32.78  
Sea Level Pressure  
Sea Level Pressure 30.25 in    
Wind  
Wind Speed 7 mph (NNE)    
Max Wind Speed 16 mph    
Max Gust Speed 20 mph    
Visibility 10 miles    
Events      
T = Trace of Precipitation, MM = Missing Value Source: NWS Daily Summary

Daily Weather History Graph

Daily Weather History Graph

Search for Another Location

Airport or City:

Trip Planner

Search our weather history database for the weather conditions in past years. The results will help you decide how hot, cold, wet, or windy it might be!

Date:

Astronomy

Dec. 25, 2012 Rise Set
Actual Time 8:08 AM EST 5:14 PM EST
Civil Twilight 7:36 AM EST 5:46 PM EST
Nautical Twilight 7:01 AM EST 6:21 PM EST
Astronomical Twilight 6:27 AM EST 6:55 PM EST
Moon 3:22 PM EST (12/25) 5:39 AM EST (12/25)
Length of Visible Light 10h 09m
Length of Day
9h 05m
Waxing Gibbous, 93% of the Moon is Illuminated
Dec 25
Waxing Gibbous
Dec 28
Full
Jan 4
Last Quarter
Jan 11
New
Jan 18
First Quarter

Hourly Weather History & Observations

Time (EST) Temp. Windchill Dew Point Humidity Pressure Visibility Wind Dir Wind Speed Gust Speed Precip Events Conditions
12:53 AM 26.1 °F 18.4 °F 21.0 °F 81% 30.06 in 10.0 mi North 6.9 mph - N/A   Overcast
1:53 AM 24.1 °F 18.2 °F 19.0 °F 81% 30.09 in 10.0 mi NNW 4.6 mph - N/A   Mostly Cloudy
2:09 AM 23.0 °F 18.4 °F 17.6 °F 80% 30.06 in 10.0 mi NNW 3.5 mph - N/A   Scattered Clouds
2:53 AM 21.9 °F - 18.0 °F 85% 30.12 in 10.0 mi Calm Calm - N/A   Clear
3:53 AM 18.0 °F 12.7 °F 16.0 °F 92% 30.15 in 10.0 mi NNW 3.5 mph - N/A   Clear
4:53 AM 18.0 °F - 14.0 °F 84% 30.18 in 10.0 mi Calm Calm - N/A   Clear
5:53 AM 17.1 °F - 14.0 °F 88% 30.21 in 10.0 mi Calm Calm - N/A   Clear
6:53 AM 17.1 °F - 14.0 °F 88% 30.23 in 8.0 mi Calm Calm - N/A   Clear
7:53 AM 16.0 °F 10.4 °F 14.0 °F 92% 30.25 in 7.0 mi North 3.5 mph - N/A   Clear
8:53 AM 18.0 °F 12.7 °F 15.1 °F 88% 30.27 in 9.0 mi NNE 3.5 mph - N/A   Clear
9:53 AM 24.1 °F 15.2 °F 18.0 °F 77% 30.28 in 10.0 mi NE 8.1 mph - N/A   Clear
10:53 AM 27.0 °F 15.6 °F 18.0 °F 69% 30.29 in 10.0 mi NE 13.8 mph - N/A   Clear
11:53 AM 28.9 °F 17.7 °F 19.0 °F 67% 30.30 in 10.0 mi NE 15.0 mph - N/A   Clear
12:53 PM 30.9 °F 21.7 °F 19.9 °F 64% 30.29 in 10.0 mi NNE 11.5 mph - N/A   Partly Cloudy
1:53 PM 32.0 °F 24.2 °F 19.9 °F 61% 30.29 in 10.0 mi NNE 9.2 mph - N/A   Clear
2:53 PM 32.0 °F 23.6 °F 19.9 °F 61% 30.28 in 10.0 mi NNE 10.4 mph - N/A   Clear
3:53 PM 30.0 °F 21.1 °F 19.0 °F 64% 30.29 in 10.0 mi NNE 10.4 mph - N/A   Clear
4:53 PM 28.9 °F 21.1 °F 19.0 °F 67% 30.30 in 10.0 mi NE 8.1 mph - N/A   Clear
5:53 PM 27.0 °F 20.5 °F 18.0 °F 69% 30.33 in 10.0 mi NE 5.8 mph - N/A   Partly Cloudy
6:53 PM 26.1 °F 17.6 °F 17.1 °F 69% 30.33 in 10.0 mi NE 8.1 mph - N/A   Clear
7:53 PM 25.0 °F 17.1 °F 17.1 °F 72% 30.35 in 10.0 mi NE 6.9 mph - N/A   Mostly Cloudy
8:53 PM 25.0 °F 16.3 °F 17.1 °F 72% 30.34 in 10.0 mi NNE 8.1 mph - N/A   Overcast
9:53 PM 26.1 °F 16.2 °F 16.0 °F 66% 30.31 in 10.0 mi NE 10.4 mph - N/A   Overcast
10:53 PM 26.1 °F 17.6 °F 17.1 °F 69% 30.29 in 10.0 mi NE 8.1 mph - N/A   Overcast
11:53 PM 26.1 °F 16.2 °F 17.1 °F 69% 30.28 in 10.0 mi NE 10.4 mph - N/A   Overcast